[[{"header":{"parameterUnit":"m.s-1","parameterCategory":1,"la1":30.2991,"la2":30.254,"lo1":-89.0895,"lo2":-89.0444,"dy":0.0017,"dx":0.0017,"nx":28,"ny":28,"refTime":"2024-04-08T09:00:00:Z","depth":0,"parameterNumber":2,"parameterNumberName":"U-component_of_WINDS"},"data":[0,0,0,0,0,0,0,0,0,0,0,0,0,0,0,0,0,0,0,0,0,0,0,0,0,0,0,0,0,0,0,0,0,0,0,0,0,0,0,0,0,0,0,0,0,0,0,0,0,0,0,0,0,0,0,0,0,0,-5.6595,-5.6596,0,-5.6659,-5.6659,-5.666,-5.6637,-5.6635,-5.6634,-5.6632,-5.6696,-5.6699,-5.6702,0,0,0,0,0,0,0,0,0,0,0,0,0,-5.6453,-5.6455,-5.6595,-5.6596,-5.6597,-5.6659,-5.666,-5.666,-5.6637,-5.6635,-5.6633,-5.6632,-5.6695,-5.6699,-5.6702,0,0,0,0,0,0,0,0,0,0,0,0,0,-5.6515,-5.6456,-5.6595,-5.6592,-5.6593,-5.6658,-5.666,-5.6661,-5.6637,-5.6635,-5.6633,-5.6631,-5.6694,-5.6698,-5.6703,-5.6774,0,0,-5.6717,-5.6719,0,0,0,0,0,0,0,0,-5.6512,-5.652,-5.6592,-5.6593,-5.6593,-5.6638,-5.6633,-5.6699,-5.6638,-5.662,-5.6632,-5.663,-5.6678,-5.6684,-5.6701,-5.6777,-5.678,-5.6717,-5.672,-5.6722,-5.6723,0,0,0,0,0,0,0,-5.6507,-5.6517,-5.662,-5.6593,-5.6594,-5.6588,-5.6595,-5.6645,-5.6661,-5.6622,-5.662,-5.6628,-5.6678,-5.6696,-5.6702,-5.6781,-5.6717,-5.6721,-5.6724,-5.6726,-5.6919,-5.6922,0,0,0,0,0,0,-5.6503,-5.6514,-5.6618,-5.6622,-5.6546,-5.6592,-5.66,-5.6626,-5.666,-5.6663,-5.663,-5.6627,-5.669,-5.6697,-5.6704,-5.6789,-5.6722,-5.6726,-5.6729,-5.6917,-5.692,-5.6922,0,0,0,0,0,0,-5.65,-5.6512,-5.6616,-5.6568,-5.658,-5.6597,-5.6626,-5.6628,-5.6646,-5.6666,-5.6669,-5.6645,-5.6688,-5.6698,-5.6757,-5.6791,-5.6728,-5.6732,-5.6914,-5.6918,-5.6921,-5.6959,0,0,0,0,0,0,-5.6496,-5.6511,-5.6538,-5.6569,-5.6583,-5.6667,-5.6629,-5.6631,-5.6654,-5.6651,-5.6681,-5.6685,-5.6687,-5.675,-5.6762,-5.6796,-5.6736,-5.6911,-5.6916,-5.692,-5.6955,-5.6964,-5.6971,0,0,0,0,0,-5.6491,-5.6546,-5.654,-5.6553,-5.6617,-5.6669,-5.6678,-5.668,-5.6657,-5.6684,-5.6698,-5.6684,-5.6786,-5.6757,-5.6769,-5.6805,-5.6909,-5.6914,-5.692,-5.6951,-5.6962,-5.6971,0,0,0,0,0,0,-5.6519,-5.655,-5.6543,-5.661,-5.6638,-5.6665,-5.6699,-5.6691,-5.6725,-5.672,-5.6722,-5.6729,-5.679,-5.6804,-5.6771,-5.6876,-5.6844,-5.6852,-5.6864,-5.6874,-5.6882,-5.6876,-5.674,0,0,0,0,0,-5.6533,-5.6573,-5.6598,-5.6655,-5.6669,-5.6683,-5.6705,-5.6705,-5.6733,-5.6744,-5.6761,-5.6789,-5.6827,-5.6852,-5.6889,-5.6959,-5.6964,-5.699,-5.6998,-5.7004,-5.701,-5.7048,-5.7059,-5.694,-5.694,-5.694,0,0,-5.6562,-5.6585,-5.6609,-5.6661,-5.6682,-5.6723,-5.6692,-5.6736,-5.6766,-5.675,-5.6807,-5.6822,-5.6852,-5.6917,-5.6946,-5.6931,-5.7045,-5.7011,-5.7016,-5.7019,-5.7054,-5.7066,-5.7076,-5.6944,-5.6943,-5.6943,0,0,-5.6636,-5.6657,-5.6706,-5.6729,-5.6761,-5.677,-5.6782,-5.6812,-5.6821,-5.6878,-5.6867,-5.6903,-5.697,-5.6991,-5.7011,-5.7096,-5.7084,-5.7109,-5.7149,-5.7186,-5.7195,-5.7203,-5.7231,-5.7242,-5.7115,-5.7115,-5.7115,0,-5.6667,-5.6728,-5.6733,-5.6778,-5.6801,-5.679,-5.684,-5.6861,-5.6904,-5.692,-5.6902,-5.6986,-5.7006,-5.7075,-5.7096,-5.7113,-5.7126,-5.7103,-5.7194,-5.7202,-5.7209,-5.7236,-5.7247,-5.7118,-5.7117,-5.7117,-5.7117,0,-5.6765,-5.6808,-5.6844,-5.6886,-5.6913,-5.6961,-5.6972,-5.6999,-5.6998,-5.7009,-5.7067,-5.7092,-5.7133,-5.715,-5.7149,-5.722,-5.7209,-5.7193,-5.7159,-5.7223,-5.7248,-5.7259,-5.7121,-5.712,-5.712,-5.7119,0,0,-5.6854,-5.69,-5.6912,-5.6931,-5.6968,-5.7001,-5.7049,-5.7089,-5.7112,-5.7143,-5.7182,-5.724,-5.7225,-5.7248,-5.725,-5.7282,-5.7346,-5.7262,-5.7263,-5.7275,-5.7424,-5.7433,-5.7445,-5.734,-5.7342,-5.7344,-5.7421,0,-5.6928,-5.7011,-5.7017,-5.7092,-5.7131,-5.7123,-5.7164,-5.7191,-5.7203,-5.7238,-5.7252,-5.7292,-5.7271,-5.7285,-5.7317,-5.7331,-5.7375,-5.7326,-5.7375,-5.7376,-5.7364,-5.7459,-5.7469,-5.754,-5.7431,-5.7432,-5.7434,0,-5.7025,-5.7059,-5.7138,-5.7169,-5.7186,-5.7223,-5.7261,-5.7295,-5.7326,-5.7332,-5.7359,-5.7357,-5.7405,-5.7374,-5.744,-5.7407,-5.7428,-5.7439,-5.7441,-5.7443,-5.7406,-5.746,-5.7563,-5.7572,-5.745,-5.7448,-5.7447,0,-5.7079,-5.7145,-5.72,-5.7217,-5.7256,-5.7282,-5.7299,-5.7328,-5.7352,-5.7386,-5.7402,-5.7442,-5.7462,-5.7493,-5.7501,-5.7478,-5.7567,-5.7537,-5.7573,-5.7573,-5.7589,-5.7587,-5.7693,-5.7608,-5.7608,-5.7608,-5.7607,0,-5.7159,-5.7207,-5.7225,-5.7259,-5.7312,-5.732,-5.7373,-5.7389,-5.7415,-5.7451,-5.7448,-5.7482,-5.7493,-5.7529,-5.7537,-5.759,-5.76,-5.7606,-5.7607,-5.7604,-5.7603,-5.7615,-5.7609,-5.761,-5.761,-5.7609,-5.7609,0,-5.7227,-5.7241,-5.7301,-5.7333,-5.7343,-5.738,-5.7408,-5.7441,-5.7454,-5.75,-5.7511,-5.7531,-5.7574,-5.7586,-5.7638,-5.7643,-5.7705,-5.7703,-5.7694,-5.7693,-5.7728,-5.7723,-5.7842,-5.7858,-5.7765,-5.7766,-5.7767,0,-5.7275,-5.7312,-5.7349,-5.7373,-5.7392,-5.7431,-5.7457,-5.7467,-5.7493,-5.7532,-5.7559,-5.7602,-5.7636,-5.7705,-5.7724,-5.7763,-5.776,-5.7799,-5.7766,-5.7762,-5.7758,-5.7754,-5.7757,-5.7804,-5.7805,-5.7806,-5.7807,0,-5.7359,-5.7365,-5.7402,-5.7441,-5.7472,-5.7503,-5.7533,-5.7554,-5.7568,-5.7598,-5.7642,-5.7669,-5.7722,-5.7764,-5.7804,-5.7822,-5.7816,-5.7818,-5.7828,-5.7824,-5.7816,-5.7819,-5.7708,-5.7814,-5.7813,-5.7813,-5.7812,-5.7812,-5.7417,-5.7449,-5.748,-5.7521,-5.7545,-5.7574,-5.7606,-5.7624,-5.7661,-5.7704,-5.7709,-5.7756,-5.7787,-5.7841,-5.7861,-5.7898,-5.7886,-5.7902,-5.7905,-5.7908,-5.7909,-5.7814,-5.7906,-5.7906,-5.7906,-5.7905,-5.7905,0,-5.7499,-5.7519,-5.7557,-5.76,-5.7632,-5.7626,-5.766,-5.7687,-5.7729,-5.7758,-5.7793,-5.7843,-5.7884,-5.7908,-5.7949,-5.7974,-5.7972,-5.7984,-5.798,-5.7984,-5.7918,-5.7904,-5.7984,-5.7984,-5.7984,-5.7984,-5.7984,-5.7984,-5.7545,-5.7598,-5.7608,-5.7674,-5.7694,-5.774,-5.7759,-5.7786,-5.781,-5.7866,-5.79,-5.7916,-5.7943,-5.7986,-5.8024,-5.803,-5.8044,-5.8056,-5.8061,-5.7998,-5.7989,-5.7981,-5.7968,-5.806,-5.806,-5.8123,-5.8124,-5.8124]},{"header":{"parameterUnit":"m.s-1","parameterCategory":1,"la1":30.2991,"la2":30.254,"lo1":-89.0895,"lo2":-89.0444,"dy":0.0017,"dx":0.0017,"nx":28,"ny":28,"refTime":"2024-04-08T09:00:00:Z","depth":0,"parameterNumber":3,"parameterNumberName":"V-component_of_WINDS"},"data":[0,0,0,0,0,0,0,0,0,0,0,0,0,0,0,0,0,0,0,0,0,0,0,0,0,0,0,0,0,0,0,0,0,0,0,0,0,0,0,0,0,0,0,0,0,0,0,0,0,0,0,0,0,0,0,0,0,0,3.5135,3.5135,0,3.5135,3.5135,3.5135,3.5124,3.5124,3.5124,3.5123,3.5121,3.5121,3.5121,0,0,0,0,0,0,0,0,0,0,0,0,0,3.5126,3.5127,3.5135,3.5135,3.5135,3.5135,3.5135,3.5135,3.5124,3.5124,3.5123,3.5123,3.5121,3.5121,3.5121,0,0,0,0,0,0,0,0,0,0,0,0,0,3.5128,3.5127,3.5135,3.513,3.513,3.5135,3.5135,3.5135,3.5124,3.5124,3.5123,3.5123,3.5121,3.5121,3.5121,3.5131,0,0,3.5122,3.5122,0,0,0,0,0,0,0,0,3.5128,3.5129,3.5131,3.513,3.513,3.5129,3.5131,3.5133,3.5124,3.5126,3.5123,3.5123,3.5124,3.5124,3.5124,3.5131,3.513,3.5122,3.5122,3.5122,3.5122,0,0,0,0,0,0,0,3.5128,3.5129,3.5135,3.5131,3.513,3.5127,3.5127,3.5131,3.5127,3.5126,3.5125,3.5125,3.5123,3.5124,3.5124,3.513,3.5122,3.5122,3.5122,3.5122,3.5145,3.5146,0,0,0,0,0,0,3.5129,3.5129,3.5135,3.5135,3.5128,3.5128,3.5128,3.513,3.5127,3.5126,3.5126,3.5125,3.5124,3.5124,3.5124,3.5136,3.5122,3.5122,3.5123,3.5145,3.5146,3.5146,0,0,0,0,0,0,3.5129,3.513,3.5135,3.5132,3.5132,3.5128,3.5131,3.513,3.5131,3.5127,3.5126,3.5127,3.5124,3.5124,3.5129,3.5136,3.5123,3.5123,3.5144,3.5145,3.5146,3.5159,0,0,0,0,0,0,3.5129,3.513,3.5133,3.5132,3.5132,3.5141,3.5131,3.513,3.5131,3.513,3.5128,3.5127,3.5123,3.5129,3.513,3.5136,3.5123,3.5144,3.5145,3.5146,3.5158,3.516,3.5162,0,0,0,0,0,3.5128,3.5136,3.5134,3.5134,3.5137,3.5141,3.5141,3.5137,3.5132,3.5136,3.5133,3.5127,3.5135,3.513,3.513,3.5137,3.5143,3.5145,3.5145,3.5157,3.516,3.5162,0,0,0,0,0,0,3.5138,3.5136,3.5133,3.5141,3.5141,3.5139,3.5144,3.514,3.5141,3.514,3.5134,3.5133,3.514,3.5139,3.5133,3.5146,3.5138,3.5139,3.5147,3.5149,3.5151,3.5151,3.5123,0,0,0,0,0,3.5141,3.5145,3.5143,3.515,3.5151,3.5147,3.5149,3.5146,3.5146,3.5146,3.5144,3.5143,3.5146,3.5147,3.5149,3.5158,3.5157,3.5162,3.5164,3.5166,3.5167,3.5172,3.5175,3.5149,3.5149,3.5149,0,0,3.5147,3.5147,3.515,3.5152,3.5152,3.5156,3.5148,3.5152,3.5155,3.5146,3.5152,3.515,3.515,3.5157,3.516,3.5156,3.5174,3.5167,3.5168,3.5169,3.5174,3.5176,3.5178,3.515,3.515,3.515,0,0,3.5161,3.5161,3.5168,3.5168,3.5169,3.5167,3.5168,3.5167,3.5166,3.5172,3.5166,3.5169,3.5173,3.5173,3.5174,3.5189,3.5184,3.5189,3.5199,3.5205,3.5207,3.5208,3.5214,3.5216,3.5191,3.5191,3.5191,0,3.5169,3.5175,3.5171,3.5177,3.5178,3.5171,3.5178,3.5178,3.5179,3.518,3.5176,3.5182,3.5181,3.5188,3.5192,3.5193,3.5195,3.519,3.5207,3.5208,3.521,3.5216,3.5218,3.5191,3.5191,3.5191,3.5191,0,3.5185,3.519,3.5195,3.5197,3.5199,3.5205,3.5202,3.5204,3.5201,3.5199,3.5206,3.5204,3.5206,3.5208,3.5204,3.5216,3.5213,3.5208,3.52,3.5213,3.5219,3.5221,3.5192,3.5192,3.5192,3.5192,0,0,3.5204,3.5205,3.5207,3.5209,3.5209,3.5212,3.5218,3.5221,3.5223,3.5224,3.5229,3.5233,3.5229,3.5229,3.5226,3.523,3.5243,3.5224,3.5224,3.5228,3.5256,3.5261,3.5263,3.524,3.524,3.5241,3.5257,0,3.5218,3.5229,3.5226,3.5236,3.5241,3.5235,3.524,3.5241,3.524,3.5243,3.5241,3.5245,3.5238,3.5238,3.5243,3.5241,3.5249,3.524,3.5244,3.5245,3.5245,3.5266,3.5271,3.5286,3.5259,3.5259,3.5259,0,3.5236,3.5239,3.525,3.5251,3.5253,3.5257,3.526,3.5263,3.5264,3.5263,3.5265,3.526,3.5266,3.5258,3.5266,3.526,3.5261,3.5261,3.5261,3.5262,3.5253,3.5268,3.529,3.5293,3.5262,3.5262,3.5262,0,3.525,3.5256,3.5264,3.5265,3.5266,3.527,3.527,3.5271,3.5273,3.5275,3.5277,3.5279,3.5281,3.5283,3.528,3.5274,3.5288,3.528,3.5287,3.5288,3.5291,3.5291,3.5315,3.5291,3.5291,3.5291,3.5291,0,3.5266,3.5273,3.5271,3.5275,3.5283,3.528,3.5288,3.5288,3.5288,3.5293,3.5288,3.5292,3.5287,3.5291,3.5288,3.5296,3.5296,3.5295,3.5295,3.5296,3.5296,3.5297,3.5296,3.5292,3.5292,3.5291,3.5291,0,3.5283,3.5281,3.529,3.529,3.5291,3.5297,3.5297,3.5301,3.53,3.5306,3.5307,3.5305,3.531,3.5306,3.531,3.5309,3.5319,3.5316,3.5319,3.5318,3.5326,3.5326,3.5352,3.5356,3.5329,3.533,3.533,0,3.5293,3.5299,3.5301,3.5304,3.5305,3.531,3.5313,3.5309,3.5312,3.5314,3.5319,3.5323,3.5326,3.5333,3.5332,3.5335,3.5333,3.5342,3.5333,3.5335,3.5334,3.5334,3.5335,3.5344,3.5344,3.5344,3.5344,0,3.5313,3.5312,3.5316,3.5321,3.5324,3.5327,3.533,3.5333,3.533,3.5333,3.5338,3.5341,3.5345,3.535,3.5353,3.5353,3.5348,3.5347,3.5349,3.5351,3.5353,3.5353,3.5324,3.5347,3.5346,3.5346,3.5346,3.5346,3.5327,3.5332,3.5335,3.534,3.5342,3.5345,3.5349,3.5349,3.5353,3.5358,3.5355,3.5361,3.5363,3.5366,3.5367,3.5371,3.5368,3.5371,3.5371,3.5372,3.5374,3.5352,3.5372,3.5372,3.5372,3.5372,3.5372,0,3.5347,3.5348,3.5353,3.5358,3.5362,3.5358,3.5361,3.5365,3.537,3.5372,3.5376,3.5382,3.5386,3.5386,3.539,3.5393,3.5391,3.5394,3.5394,3.5395,3.5377,3.5375,3.5396,3.5396,3.5396,3.5396,3.5396,3.5396,3.5358,3.5367,3.5366,3.5376,3.5377,3.5384,3.5386,3.5389,3.539,3.5398,3.5402,3.5401,3.5402,3.5407,3.541,3.541,3.5412,3.5416,3.5415,3.5398,3.5396,3.5393,3.5392,3.5416,3.5416,3.5433,3.5433,3.5433]}]]